CW9767 Weather Reports


Display with metric or nautical units.
time (UTC)temp
F
wind
direction
speed
MPH
gust
MPH
rain 1hr
in
rain 24hr
in
rain mn
in
humidity
%
barometer
mb
20260903033543 80 256 1.0 3.0 0.00 0.01 0.01 87 1011.2
20260903032542 80 271 2.0 3.0 0.00 0.01 0.01 87 1011.2
20260903031541 80 249 2.0 2.0 0.00 0.01 0.01 87 1010.8
20260903030539 80 227 0.0 0.0 0.00 0.01 0.01 87 1011.2
20260903025538 80 242 0.0 0.0 0.00 0.01 0.01 87 1011.2
20260903024537 80 242 0.0 0.0 0.00 0.01 0.01 86 1011.5
20260903023535 80 240 0.0 0.0 0.00 0.01 0.01 86 1011.5
20260903022503 81 238 0.0 0.0 0.00 0.01 0.01 85 1011.9
20260903021501 81 238 0.0 2.0 0.00 0.01 0.01 84 1011.9
20260903020427 81 217 1.0 2.0 0.00 0.01 0.01 84 1011.5
20260903015420 82 214 1.0 1.0 0.00 0.01 0.01 84 1011.5
20260903014417 82 208 1.0 1.0 0.00 0.01 0.01 84 1011.5
20260903013415 82 228 1.0 2.0 0.00 0.01 0.01 84 1011.5
20260903012410 82 224 1.0 2.0 0.00 0.01 0.01 84 1011.5
20260903011334 82 217 1.0 2.0 0.00 0.01 0.01 84 1011.2
20260903010332 82 222 1.0 2.0 0.00 0.01 0.01 83 1011.2
20260903005329 83 209 1.0 2.0 0.00 0.01 0.01 82 1011.2
20260903004327 84 211 0.0 1.0 0.00 0.01 0.01 81 1011.2
20260903003325 84 214 0.0 1.0 0.00 0.01 0.01 79 1011.2
20260903002251 85 218 1.0 2.0 0.00 0.01 0.01 78 1011.2
20260903001218 86 224 1.0 2.0 0.00 0.01 0.01 77 1011.2
20260903000145 86 214 1.0 1.0 0.00 0.01 0.01 75 1011.2
20260902235144 87 232 0.0 3.0 0.00 0.01 0.01 74 1011.2
20260902234143 88 242 1.0 3.0 0.00 0.01 0.01 72 1011.2
20260902233142 88 234 1.0 3.0 0.00 0.01 0.01 71 1011.2
20260902232108 89 235 0.0 3.0 0.00 0.01 0.01 70 1011.2
20260902231107 90 245 1.0 4.0 0.00 0.02 0.01 69 1011.5
20260902230106 90 237 2.0 4.0 0.00 0.02 0.01 67 1011.2
20260902225105 91 225 2.0 4.0 0.00 0.02 0.01 66 1011.2
20260902224104 91 232 1.0 5.0 0.00 0.02 0.01 65 1011.2
20260902223103 91 222 2.0 5.0 0.00 0.02 0.01 65 1011.5
20260902222102 91 240 2.0 5.0 0.00 0.02 0.01 65 1011.5
20260902221057 92 224 2.0 7.0 0.00 0.02 0.01 64 1011.5
20260902220055 93 232 3.0 7.0 0.00 0.04 0.01 62 1011.5
20260902215054 93 221 3.0 5.0 0.00 0.05 0.01 61 1011.5
20260902214053 93 238 2.0 4.0 0.00 0.06 0.01 62 1011.5
20260902213051 93 208 2.0 5.0 0.00 0.07 0.01 63 1011.9
20260902212017 91 221 2.0 5.0 0.00 0.08 0.01 63 1011.9
20260902210945 91 254 1.0 4.0 0.00 0.08 0.01 64 1011.9
20260902205944 91 240 0.0 4.0 0.00 0.08 0.01 62 1011.9
20260902204942 92 229 1.0 8.0 0.00 0.09 0.01 62 1011.9
20260902203909 93 236 1.0 8.0 0.00 0.09 0.01 60 1012.2
20260902202907 93 249 3.0 9.0 0.00 0.09 0.01 57 1011.9
20260902201906 93 259 3.0 7.0 0.00 0.09 0.01 58 1012.2
20260902200904 94 248 2.0 9.0 0.00 0.10 0.01 57 1012.2
20260902195903 94 257 3.0 9.0 0.00 0.11 0.01 56 1012.2
20260902194829 94 243 2.0 7.0 0.00 0.12 0.01 56 1012.5
20260902193828 94 237 2.0 7.0 0.00 0.12 0.01 56 1012.5
20260902192827 94 232 2.0 7.0 0.00 0.12 0.01 59 1012.9
20260902191826 94 243 3.0 9.0 0.00 0.12 0.01 58 1012.9
20260902190824 94 240 2.0 9.0 0.00 0.12 0.01 59 1012.9
20260902185751 94 255 4.0 8.0 0.00 0.12 0.01 60 1012.9
20260902184749 93 252 2.0 9.0 0.00 0.12 0.01 59 1013.2
20260902183748 93 257 3.0 8.0 0.00 0.12 0.01 59 1013.2
20260902182747 93 252 3.0 6.0 0.00 0.12 0.01 61 1013.2
20260902181746 93 244 2.0 4.0 0.00 0.12 0.01 61 1013.2
20260902180744 93 222 2.0 5.0 0.00 0.12 0.01 61 1013.2
20260902175640 93 250 3.0 7.0 0.00 0.12 0.01 63 1013.5
20260902174639 93 236 3.0 7.0 0.00 0.12 0.01 61 1013.5
20260902173637 92 244 2.0 5.0 0.00 0.12 0.01 62 1013.5
20260902172533 92 229 1.0 6.0 0.00 0.12 0.01 64 1013.5
20260902171532 91 258 3.0 6.0 0.00 0.12 0.01 65 1013.9
20260902170459 92 259 2.0 8.0 0.00 0.12 0.01 66 1013.5
20260902165425 91 269 3.0 8.0 0.00 0.12 0.01 65 1013.9
20260902164424 91 266 2.0 6.0 0.00 0.12 0.01 67 1013.9
20260902163422 91 264 2.0 6.0 0.00 0.12 0.01 68 1013.9
20260902162421 90 270 2.0 6.0 0.00 0.12 0.01 68 1014.2
20260902161349 89 266 2.0 6.0 0.00 0.12 0.01 71 1014.2
20260902160347 88 249 1.0 6.0 0.00 0.12 0.01 75 1014.2
20260902155345 88 249 1.0 5.0 0.00 0.12 0.01 75 1014.2
20260902154241 87 257 0.0 4.0 0.00 0.12 0.01 78 1014.2
20260902153239 86 261 2.0 4.0 0.00 0.12 0.01 78 1014.2
20260902152237 85 262 2.0 5.0 0.00 0.12 0.01 78 1014.2
20260902151236 85 265 2.0 5.0 0.00 0.12 0.01 80 1014.2
20260902150235 85 262 1.0 4.0 0.00 0.12 0.01 80 1014.2
20260902145233 84 264 1.0 6.0 0.00 0.12 0.01 82 1014.2
20260902144159 83 263 3.0 6.0 0.00 0.12 0.01 82 1013.9
20260902143158 83 268 1.0 5.0 0.00 0.12 0.01 84 1013.9
20260902142155 82 266 2.0 5.0 0.00 0.12 0.01 84 1013.9
20260902141153 82 259 3.0 6.0 0.00 0.12 0.01 85 1013.9
20260902140152 81 263 3.0 6.0 0.00 0.12 0.01 85 1013.9
20260902135119 80 262 1.0 6.0 0.00 0.12 0.01 88 1013.9
20260902134117 80 266 4.0 6.0 0.00 0.12 0.01 88 1013.9
20260902133116 79 267 2.0 5.0 0.00 0.12 0.01 90 1013.9
20260902132114 78 266 3.0 5.0 0.00 0.12 0.01 91 1014.2
20260902131113 78 267 1.0 2.0 0.00 0.12 0.01 92 1014.2
20260902130111 77 264 1.0 2.0 0.00 0.12 0.01 91 1014.2
20260902125039 76 256 1.0 2.0 0.00 0.12 0.01 88 1014.2
20260902123934 76 217 0.0 0.0 0.00 0.12 0.01 86 1014.2
20260902122933 75 212 0.0 1.0 0.00 0.12 0.01 86 1014.2
20260902121900 74 220 0.0 1.0 0.00 0.12 0.01 85 1014.2
20260902120858 74 141 0.0 0.0 0.00 0.12 0.01 85 1014.2
20260902115856 73 141 0.0 0.0 0.00 0.12 0.01 85 1014.2
20260902114855 72 161 0.0 0.0 0.00 0.12 0.01 86 1013.9
20260902113853 72 161 0.0 0.0 0.00 0.12 0.01 86 1014.2
20260902112852 72 176 0.0 0.0 0.00 0.12 0.01 86 1014.2
20260902111850 72 176 0.0 0.0 0.00 0.12 0.01 86 1014.2
20260902110817 72 176 0.0 0.0 0.00 0.12 0.01 86 1014.2
20260902105815 72 176 0.0 0.0 0.00 0.12 0.01 87 1014.2
20260902104815 72 176 0.0 0.0 0.00 0.12 0.01 88 1013.9
20260902103743 72 176 0.0 0.0 0.00 0.12 0.01 87 1013.9
20260902102741 72 176 0.0 0.0 0.00 0.12 0.01 87 1013.9
20260902101739 72 176 0.0 0.0 0.00 0.12 0.01 88 1013.9
20260902100738 72 176 0.0 0.0 0.00 0.12 0.01 88 1013.9
20260902095705 73 176 0.0 0.0 0.00 0.12 0.01 87 1013.9
20260902094704 73 176 0.0 0.0 0.00 0.12 0.01 87 1013.9
20260902093702 73 176 0.0 0.0 0.00 0.12 0.01 88 1013.5
20260902092701 73 158 0.0 0.0 0.00 0.12 0.01 88 1013.5
20260902091659 73 195 0.0 0.0 0.00 0.12 0.01 87 1013.5
20260902090658 73 195 0.0 0.0 0.00 0.12 0.01 88 1013.5
20260902085656 73 205 0.0 0.0 0.00 0.12 0.01 89 1013.5
20260902084655 73 181 0.0 0.0 0.00 0.12 0.01 87 1013.5
20260902083653 73 216 0.0 0.0 0.00 0.12 0.01 88 1013.5
20260902082651 73 223 0.0 0.0 0.00 0.12 0.01 90 1013.5
20260902081650 73 223 0.0 0.0 0.01 0.12 0.01 89 1013.5
20260902080649 74 223 0.0 0.0 0.01 0.12 0.01 89 1013.5
20260902075648 74 223 0.0 0.0 0.01 0.12 0.01 88 1013.5
20260902074646 74 223 0.0 0.0 0.01 0.12 0.01 90 1013.5
20260902073612 74 223 0.0 0.0 0.01 0.12 0.01 90 1013.2
20260902072611 74 223 0.0 0.0 0.00 0.11 0.00 90 1013.2
20260902071610 75 223 0.0 0.0 0.00 0.11 0.00 89 1013.2
20260902070608 75 223 0.0 0.0 0.00 0.11 0.00 89 1012.9
20260902065607 75 223 0.0 0.0 0.00 0.11 0.00 90 1012.9
20260902064534 75 223 0.0 0.0 0.00 0.11 0.00 89 1012.9
20260902063533 76 223 0.0 0.0 0.00 0.11 0.00 88 1012.9
20260902062531 75 217 0.0 0.0 0.00 0.11 0.00 88 1013.2
20260902061530 75 297 0.0 0.0 0.00 0.11 0.00 88 1013.2
20260902060456 75 297 0.0 0.0 0.00 0.11 0.00 89 1013.2
20260902055455 75 297 0.0 0.0 0.00 0.11 0.00 89 1013.5
20260902054453 75 297 0.0 0.0 0.00 0.11 0.00 90 1013.5
20260902053452 75 297 0.0 0.0 0.00 0.11 0.00 91 1013.5
20260902052450 75 297 0.0 0.0 0.00 0.11 0.00 91 1013.5
20260902051449 76 297 0.0 0.0 0.00 0.11 0.00 91 1013.5
20260902050447 76 297 0.0 0.0 0.00 0.11 0.00 91 1013.5
20260902045446 76 297 0.0 0.0 0.00 0.11 0.00 91 1013.5
20260902044444 77 297 0.0 0.0 0.00 0.11 0.00 91 1013.5
20260902043442 77 297 0.0 0.0 0.00 0.11 0.00 91 1013.5
20260902042441 77 297 0.0 0.0 0.00 0.11 0.00 91 1013.5
20260902041440 77 297 0.0 0.0 0.00 0.11 0.00 91 1013.5
20260902040439 77 297 0.0 1.0 0.00 0.11 0.11 91 1013.2
20260902035438 78 261 0.0 1.0 0.00 0.11 0.11 90 1013.2
20260902034436 77 266 1.0 2.0 0.00 0.11 0.11 90 1013.2